{"data":{"norad_id":69648,"intl_designator":"1998-067YH","name":"HOKUSHIN-1","alt_names":[],"object_type":"PAYLOAD","status":"ACTIVE","operator":null,"country":"JPN","launch_date":"1998-11-20","launch_site_code":"TYMSC","launch_vehicle":null,"mission":null,"orbit_class":"UNKNOWN","rcs_meters":null,"size_class":null,"mass_kg":null,"dimensions":null,"purposes":[],"wikipedia_slug":null,"has_3d_model":false,"image_url":null,"decayed_at":null,"tle_current":{"epoch":"2026-09-19T12:41:00.777408Z","epoch_age_seconds":112966,"freshness":"FRESH","line1":"1 69648U 98067YH  26262.52848122  .00022115  00000+0  34116-3 0  9991","line2":"2 69648  51.6303 191.3052 0005849 182.8085 177.2874 15.54050699 14300","mean_motion":15.54050699,"eccentricity":0.0005849,"inclination_deg":51.6303,"raan_deg":191.3052,"arg_perigee_deg":182.8085,"mean_anomaly_deg":177.2874,"bstar":0.00034116,"rev_number":1430,"period_min":92.661069611603,"perigee_km":400.94612857826,"apogee_km":408.88094109391,"semimajor_km":6783.0505348361,"source":"CELESTRAK","updated_at":"2026-09-20T09:00:25.033339Z"}}}